Salem, OR

4:55 PM PDT on April 29, 2017 (GMT -0700)
McNary

Weather History for KSLE - March, 2014

Change the Weather History Date:

Sunday, March 16, 2014

  Actual Average Record
Temperature  
Mean Temperature 52 °F 47 °F  
Max Temperature 61 °F 57 °F 75 °F (1947)
Min Temperature 43 °F 37 °F 23 °F (1955)
Degree Days  
Heating Degree Days 13 18  
Month to date heating degree days 229 306  
Since 1 July heating degree days 3515 3546  
Cooling Degree Days 0 0  
Month to date cooling degree days 0 0  
Year to date cooling degree days 0 0  
Growing Degree Days 2 (Base 50)    
Moisture  
Dew Point 44 °F    
Average Humidity 72    
Maximum Humidity 89    
Minimum Humidity 55    
Precipitation  
Precipitation 0.51 in 0.13 in 1.34 in (1938)
Month to date precipitation 4.49 2.19  
Year to date precipitation 13.76 12.71  
Sea Level Pressure  
Sea Level Pressure 30.15 in    
Wind  
Wind Speed 12 mph (SW)    
Max Wind Speed 24 mph    
Max Gust Speed 34 mph    
Visibility 9 miles    
Events Rain    
T = Trace of Precipitation, MM = Missing Value Source: NWS Daily Summary

Daily Weather History Graph

Daily Weather History Graph

Search for Another Location

Airport or City:

Trip Planner

Search our weather history database for the weather conditions in past years. The results will help you decide how hot, cold, wet, or windy it might be!

Date:

Astronomy

Mar. 16, 2014 Rise Set
Actual Time 7:22 AM PDT 7:19 PM PDT
Civil Twilight 6:53 AM PDT 7:48 PM PDT
Nautical Twilight 6:19 AM PDT 8:22 PM PDT
Astronomical Twilight 5:44 AM PDT 8:57 PM PDT
Moon 7:44 PM PDT (3/16) 7:07 AM PDT (3/16)
Length of Visible Light 12h 55m
Length of Day
11h 57m
Full, 100% of the Moon is Illuminated
Mar 16
Full
Mar 23
Last Quarter
Mar 30
New
Apr 7
First Quarter
Apr 15
Full

Hourly Weather History & Observations

Time (PDT) Temp. Windchill Dew Point Humidity Pressure Visibility Wind Dir Wind Speed Gust Speed Precip Events Conditions
12:56 AM 52.0 °F - 46.9 °F 83% 30.32 in 10.0 mi South 8.1 mph - N/A   Partly Cloudy
1:56 AM 53.1 °F - 46.9 °F 80% 30.32 in 10.0 mi South 11.5 mph - N/A   Clear
2:56 AM 53.1 °F - 46.9 °F 80% 30.30 in 10.0 mi South 12.7 mph - N/A   Overcast
3:56 AM 53.1 °F - 46.9 °F 80% 30.29 in 10.0 mi South 15.0 mph - N/A   Overcast
4:56 AM 52.0 °F - 46.9 °F 83% 30.28 in 10.0 mi South 9.2 mph - N/A   Overcast
5:56 AM 52.0 °F - 46.0 °F 80% 30.26 in 10.0 mi South 10.4 mph - N/A   Mostly Cloudy
6:56 AM 50.0 °F - 45.0 °F 83% 30.25 in 10.0 mi South 9.2 mph - N/A   Clear
7:56 AM 50.0 °F - 46.0 °F 86% 30.24 in 10.0 mi South 10.4 mph - N/A   Clear
8:56 AM 52.0 °F - 46.0 °F 80% 30.24 in 10.0 mi SSW 9.2 mph - N/A   Mostly Cloudy
9:56 AM 54.0 °F - 46.9 °F 77% 30.23 in 10.0 mi South 13.8 mph - N/A   Overcast
10:56 AM 57.0 °F - 46.9 °F 69% 30.22 in 10.0 mi South 15.0 mph - N/A   Scattered Clouds
11:56 AM 59.0 °F - 46.9 °F 64% 30.21 in 10.0 mi South 13.8 mph - N/A   Mostly Cloudy
12:56 PM 60.1 °F - 46.9 °F 62% 30.17 in 10.0 mi South 11.5 mph - N/A   Overcast
1:56 PM 60.1 °F - 46.9 °F 62% 30.13 in 10.0 mi South 13.8 mph 23.0 mph N/A   Overcast
2:56 PM 60.1 °F - 45.0 °F 57% 30.09 in 10.0 mi South 15.0 mph 27.6 mph N/A   Mostly Cloudy
3:56 PM 59.0 °F - 44.1 °F 58% 30.07 in 10.0 mi WSW 15.0 mph 23.0 mph N/A   Overcast
4:56 PM 57.9 °F - 42.1 °F 56% 30.04 in 10.0 mi SW 15.0 mph 23.0 mph N/A   Overcast
5:56 PM 57.0 °F - 42.1 °F 57% 30.03 in 10.0 mi SW 15.0 mph 20.7 mph N/A   Overcast
6:56 PM 55.0 °F - 42.1 °F 62% 29.99 in 10.0 mi SSW 17.3 mph 34.5 mph 0.00 in Rain Light Rain
7:56 PM 50.0 °F - 46.9 °F 89% 30.00 in 4.0 mi SW 10.4 mph 20.7 mph 0.12 in Rain Rain
8:12 PM 46.9 °F - 43.0 °F 86% 30.02 in 4.0 mi West 16.1 mph 24.2 mph 0.08 in Rain Heavy Rain
8:27 PM 46.0 °F 39.3 °F 42.1 °F 86% 30.01 in 5.0 mi WNW 16.1 mph - 0.16 in Rain Rain
8:56 PM 45.0 °F 40.1 °F 41.0 °F 86% 30.03 in 7.0 mi WNW 9.2 mph - 0.21 in Rain Light Rain
9:56 PM 44.1 °F 37.7 °F 39.9 °F 85% 30.06 in 8.0 mi WNW 12.7 mph - 0.11 in Rain Rain
10:56 PM 44.1 °F 38.6 °F 39.9 °F 85% 30.10 in 10.0 mi WNW 10.4 mph - 0.06 in Rain Light Rain
11:07 PM 44.1 °F 39.0 °F 39.9 °F 85% 30.10 in 10.0 mi WNW 9.2 mph - 0.00 in Rain Light Rain
11:33 PM 44.1 °F 38.6 °F 39.0 °F 82% 30.11 in 10.0 mi West 10.4 mph - 0.01 in Rain Light Rain
11:56 PM 43.0 °F 38.2 °F 39.0 °F 86% 30.13 in 10.0 mi WNW 8.1 mph - 0.01 in Rain Light Rain